SCP
0 0 0 0 0 0 0 0 0 0 0 0 0 0 0 -0 0 0 0 0 0 0 0 0 0 0 0 0 0 0 0 0 0 0 0 0 0 0 0 0 0 0 0 0
0 0 0 0 0 0 0 0 0 0 0 0 0 0 0 0 0 0 0 0 0 0 0 0 0 0 0 0 0 0 0 0 0 0 0 0 0 0 0 0 0 0 0 0
0 0 0 0 0 0 0 0 0 0 0 0 0 0 0 0 0 0 0 0 0 0 0 0 0 0 0 0 0 0 0 0 0 0 0 0 0 0 0 0 0 0 0 0
0 0 0 0 0 0 0 0 -0 -0 -0 0 0 0 0 0 0 0 0 0 0 0 0 0 0 0 0 0 0 0 0 0 0 0 0 0 0 0 0 0 0 0 0 0
0 0 0 0 0 0 0 0 0 -0 -0 0 0 0 0 0 0 0 0 0 0 0 0 0 0 0 0 0 0 0 0 0 0 0 0 0 0 0 0 0 0 0 0 0
0 0 0 0 0 0 0 0 0 -0 -0 -0 0 0 0 0 0 0 0 0 0 0 0 0 0 0 0 0 0 0 0 0 0 0 0 0 0 0 0 0 0 0 0 0
0 0 0 0 0 0 0 0 0 -0 -0 -0 0 0 0 0 0 0 0 0 0 0 0 0 0 0 0 0 0 0 0 0 0 0 0 0 0 0 0 0 0 0 0 0
0 0 0 0 0 0 0 0 0 0 0 0 0 0 0 0 0 0 0 0 0 0 0 0 0 0 0 0 0 0 0 0 0 0 0 0 0 0 0 0 0 0 0 0
0 0 0 0 0 0 0 0 0 0 0 0 0 0 0 0 0 0 0 0 0 0 0 0 0 0 0 0 0 0 0 0 0 0 0 0 0 0 0 0 0 0 0 0
0 0 0 0 0 0 0 0 0 0 0 0 0 0 0 0 0 0 0 0 0 0 0 0 0 0 0 0 0 0 0 0 0 0 0 0 0 0 0 0 0 0 0 0
0 0 0 0 0 0 0 0 0 0 0 0 0 0 0 0 0 0 0 0 0 0 0 0 0 0 0 0 0 0 0 0 0 0 0 0 0 0 0 0 0 0 0 0
0 0 0 0 0 0 0 0 0 0 0 0 0 0 0 0 0 0 0 0 0 0 0 0 0 0 0 0 0 0 0 0 0 0 0 0 0 0 0 0 0 0 0 0
0 0 0 0 0 0 0 0 0 0 0 0 0 0 0 0 0 0 0 0 0 0 0 0 0 0 0 0 0 0 0 0 0 0 0 0 0 0 0 0 0 0 0 0
0 0 0 0 0 0 0 0 0 0 0 0 0 0 0 0 0 0 0 0 0 0 0 0 0 0 0 0 -0 -0 0 0 0 0 0 0 0 0 0 0 0 0 0 0
0 0 0 0 0 0 0 0 0 0 0 0 0 0 0 0 0 0 0 0 0 0 0 0 0 0 0 0 0 0 0 0 0 0 0 0 0 0 0 0 0 0 0 0
0 0 0 0 0 0 0 0 0 0 0 0 0 0 0 0 0 0 0 0 0 0 0 0 0 0 0 0 0 0 0 0 0 0 0 0 0 0 0 0 0 0 0 0
0 0 0 0 0 0 0 0 0 0 0 0 0 0 0 0 0 0 0 0 0 0 0 0 0 0 0 0 0 0 0 0 0 0 0 0 0 0 0 0 0 0 0 0
0 0 0 0 0 0 0 0 0 0 0 0 0 0 0 0 0 0 0 0 0 0 0 0 0 0 0 0 0 0 0 0 0 0 0 0 0 0 0 0 0 0 0 0
0 0 0 0 0 0 0 0 0 0 0 0 0 0 0 0 0 0 0 0 0 0 0 0 0 0 0 0 0 0 0 0 0 0 0 0 0 0 0 0 0 0 0 0
0 0 0 0 0 0 0 0 0 0 0 0 0 0 0 0 0 0 0 0 0 0 0 0 0 0 0 0 0 0 0 0 0 0 0 0 0 0 0 0 0 0 0 0
0 0 0 0 0 0 0 0 0 0 0 0 0 0 0 0 0 0 0 0 0 0 0 0 0 0 0 0 0 0 0 0 0 0 0 0 0 0 0 0 0 0 0 0
0 0 0 0 0 0 0 0 0 0 0 0 0 0 0 0 0 0 0 0 0 0 0 0 0 0 0 0 0 0 0 0 0 0 0 0 0 0 0 0 0 0 0 0
0 0 0 0 0 0 0 0 0 0 0 0 0 0 0 0 0 0 0 0 0 0 0 0 0 0 0 0 0 0 0 0 0 0 0 0 0 0 0 0 0 0 0 0
0 0 0 0 0 0 0 0 0 0 0 0 0 0 0 0 0 0 0 0 0 0 0 0 0 0 0 0 0 0 0 0 0 0 0 0 0 0 0 0 0 0 0 0
0 0 0 0 0 0 0 0 0 0 0 0 0 0 0 0 0 0 0 0 0 0 0 0 0 0 0 0 0 0 0 0 0 0 0 0 0 0 0 0 0 0 0 0
0 0 0 0 0 0 0 0 0 0 0 0 0 0 0 0 0 0 0 0 0 0 0 0 0 0 0 0 0 0 0 0 0 0 0 0 0 0 0 0 0 0 0 0
Wind_Speed
2 3 4 6 7 11 13 14 18 19 15 14 17 18 16 12 10 9 8 7 8 9 10 8 7 8 7 7 8 8 9 9 7 6 6 6 7 7 7 8 11 12 12 13
4 4 5 8 9 12 12 14 16 16 13 15 16 16 13 10 9 7 7 6 6 7 8 9 8 7 7 7 8 8 8 8 8 7 6 6 7 6 7 8 10 12 12 13
7 7 8 9 11 12 13 11 13 17 19 10 11 11 7 7 6 6 6 6 5 6 8 9 8 6 5 6 7 6 6 7 7 8 6 5 5 5 5 8 8 10 12 13
6 6 8 9 10 11 11 10 15 18 13 7 5 8 6 7 7 7 7 6 6 6 7 8 7 6 6 6 5 6 5 7 7 7 7 9 8 7 8 7 7 9 11 13
7 7 8 9 10 11 9 14 16 17 12 9 7 6 6 4 6 7 7 7 7 7 7 7 7 6 6 5 4 4 5 5 7 7 8 9 8 7 7 8 9 9 10 11
10 7 4 5 9 10 11 13 14 10 4 5 5 4 4 3 5 7 8 8 7 8 8 8 8 6 5 5 3 3 4 5 6 8 8 9 10 10 11 12 11 10 9 9
8 5 2 2 7 7 8 7 6 6 2 4 5 4 2 3 4 4 6 7 7 8 8 9 9 7 7 6 4 3 3 5 5 7 8 9 11 12 12 13 12 11 10 9
7 7 3 2 3 5 6 4 2 5 5 8 8 4 1 3 5 5 5 5 7 8 8 9 9 7 6 6 5 4 4 4 5 6 8 8 10 8 8 11 11 12 10 10
5 7 6 7 5 4 4 3 4 5 8 8 6 3 2 5 7 8 8 8 7 8 8 9 9 8 7 6 5 4 5 4 4 6 7 8 9 9 9 10 11 10 10 10
4 9 9 9 5 4 4 4 3 3 5 6 7 4 3 6 8 9 9 9 10 9 8 9 8 8 8 6 5 4 4 5 4 5 6 6 9 9 9 10 12 11 12 13
3 6 8 6 4 4 3 2 3 4 5 5 8 6 3 6 8 8 8 8 9 10 9 9 8 7 8 7 6 5 4 4 3 4 5 6 7 7 8 10 11 12 12 14
2 4 7 9 7 4 4 4 3 4 6 5 8 9 3 4 6 8 9 9 9 9 9 9 8 8 7 7 7 7 5 4 4 4 5 5 6 6 7 9 11 11 12 13
2 3 7 6 2 0 2 3 4 5 6 7 9 10 4 8 9 9 10 10 9 9 9 8 7 8 8 8 7 7 7 6 5 4 4 4 5 6 7 7 9 11 12 12
4 5 8 9 9 7 9 9 8 7 7 10 13 17 15 12 11 11 10 9 8 8 9 8 7 7 8 8 7 7 8 7 5 4 3 4 4 6 7 7 8 10 11 12
3 7 10 16 17 16 17 17 13 13 13 14 16 18 17 13 11 10 10 9 9 10 9 8 7 7 8 8 7 7 8 7 6 4 3 3 4 4 5 6 7 8 10 11
4 7 8 14 15 15 19 18 16 15 15 15 16 17 13 11 9 9 8 9 10 10 9 9 8 7 8 8 8 7 8 7 7 5 3 3 3 3 4 5 6 7 8 10
5 4 6 9 9 12 14 12 12 11 10 10 13 12 9 9 9 8 8 8 9 9 9 10 8 7 7 8 7 7 8 7 6 5 4 3 3 3 4 5 6 7 8 9
7 5 5 7 7 11 10 4 5 7 8 7 9 8 7 8 9 7 7 7 7 9 9 9 8 8 7 7 7 7 7 7 6 5 3 3 2 3 3 4 6 7 7 8
11 7 5 5 7 13 9 6 4 5 8 6 7 8 8 8 8 7 5 6 7 8 8 8 7 8 8 8 7 7 7 6 6 5 4 3 2 3 3 4 5 6 6 7
7 8 7 6 8 9 6 1 1 2 7 3 4 6 7 7 7 7 8 9 9 9 8 8 8 8 8 8 7 6 6 6 6 6 4 3 3 3 4 4 4 4 6 6
5 6 10 12 10 11 6 1 3 2 7 3 4 5 6 6 7 9 10 9 8 9 9 8 8 7 7 7 6 6 6 6 6 6 5 3 3 4 4 3 4 4 5 6
9 7 8 7 10 12 3 2 4 7 5 5 6 6 7 8 9 10 10 10 9 9 9 8 7 8 7 7 6 6 7 6 6 5 4 3 3 4 3 3 3 4 6 7
10 10 6 10 11 7 3 5 6 5 6 6 6 7 8 9 10 10 10 9 9 9 9 7 7 8 8 6 5 6 7 6 6 5 4 4 4 4 4 3 4 4 5 6
6 7 7 8 10 9 9 7 6 5 6 6 6 7 7 9 10 10 9 9 9 8 8 7 7 8 7 6 6 6 6 5 6 5 5 4 3 4 3 2 3 4 5 6
7 5 8 12 11 10 9 8 6 6 6 6 7 7 7 9 10 10 9 9 8 8 7 7 7 8 8 7 7 6 5 5 5 5 4 4 3 3 2 2 2 4 4 6
8 10 10 11 7 6 7 5 5 6 6 6 6 7 7 8 9 9 9 8 8 8 7 7 8 8 8 7 7 6 5 5 5 5 4 3 2 2 2 1 0 0 3 5
Wind_Direction
248 270 293 308 304 295 295 296 297 297 301 306 297 292 290 293 287 278 274 277 280 280 288 294 285 271 256 246 241 223 220 211 194 185 183 187 185 179 181 176 167 166 168 166
299 276 309 314 307 304 299 297 297 301 311 308 293 288 286 283 281 284 286 296 293 299 306 303 295 276 259 250 242 220 221 216 198 185 183 184 182 180 182 177 169 167 169 165
299 301 325 317 312 309 302 294 303 307 312 294 288 289 292 312 317 332 317 309 314 305 304 303 296 282 269 254 240 233 224 220 205 188 181 178 177 173 180 177 171 172 173 168
295 313 322 314 308 315 302 302 305 303 308 295 302 299 307 318 336 344 346 348 341 322 311 314 314 297 282 270 243 228 227 220 204 189 188 187 190 190 184 175 170 172 173 169
290 312 318 312 313 316 297 306 299 291 284 284 271 261 289 317 331 349 353 352 341 327 322 324 316 311 298 291 254 232 223 228 207 193 195 192 193 193 178 169 170 175 172 171
270 277 287 300 311 309 311 313 300 279 260 269 269 256 290 325 341 354 355 351 346 336 333 330 327 328 320 310 283 244 232 232 221 201 201 198 191 190 182 173 174 175 171 172
308 278 234 314 324 318 332 339 335 339 311 264 318 292 273 336 6 359 352 347 347 347 342 338 337 331 325 317 304 278 253 240 232 211 209 203 194 190 189 178 178 176 173 172
319 308 335 347 316 310 317 332 325 310 301 305 312 275 250 348 3 0 359 354 353 352 344 338 334 328 322 317 302 292 263 253 245 230 219 210 197 193 193 186 183 181 176 173
311 291 317 315 299 290 309 297 274 271 278 277 267 259 262 340 353 356 4 1 353 348 340 335 334 336 332 316 300 287 276 263 251 246 234 220 203 197 194 190 186 180 175 171
286 287 293 296 284 237 252 295 325 309 300 291 291 293 304 345 350 352 355 352 347 344 339 332 333 336 332 321 303 286 279 269 260 253 241 236 210 196 196 192 185 181 177 172
273 275 293 295 262 268 277 281 279 269 263 285 295 290 334 344 340 340 342 344 346 344 338 332 334 335 333 333 336 318 295 287 281 269 252 248 217 200 199 192 185 183 178 176
264 280 280 271 261 241 239 252 255 269 282 273 280 279 296 324 335 338 337 337 336 337 336 330 334 338 339 337 338 333 320 300 282 272 260 252 228 204 200 191 186 184 182 180
269 264 295 298 250 353 282 272 271 266 271 264 267 275 307 330 327 327 326 324 326 330 331 331 337 339 340 340 338 333 326 313 296 283 267 256 234 213 202 191 190 189 183 180
264 235 228 255 276 299 286 274 262 251 257 265 262 279 296 306 313 318 317 318 322 323 326 330 335 337 336 336 333 330 325 321 308 292 269 257 243 221 208 195 192 193 185 182
242 258 254 264 274 277 274 274 266 253 250 259 273 280 288 300 308 311 314 319 326 324 328 331 331 332 331 331 330 329 324 323 319 296 276 267 252 231 209 197 191 190 187 180
223 262 278 274 272 274 273 269 265 262 260 261 272 276 284 295 302 306 311 317 319 320 325 327 327 328 328 325 326 327 323 321 317 303 288 287 266 232 208 199 189 186 185 179
214 237 271 275 287 293 270 257 250 249 251 257 267 276 299 307 307 308 313 314 313 321 325 324 322 321 318 317 320 320 317 315 312 304 303 292 290 248 212 199 187 186 183 177
216 228 254 278 294 256 250 242 254 265 266 265 275 292 303 304 308 307 306 309 317 322 319 317 316 315 311 310 314 314 313 313 309 299 298 299 298 271 226 200 190 189 182 179
211 213 242 259 264 271 273 264 250 264 279 274 283 301 312 315 313 303 320 331 323 315 311 311 311 310 310 309 310 315 315 313 309 299 295 297 295 276 240 210 198 188 180 180
204 201 221 244 257 262 270 319 44 349 280 274 297 306 315 325 311 301 321 321 315 313 310 310 309 310 310 309 311 312 311 312 310 305 297 296 293 278 253 217 204 192 180 181
193 215 225 239 252 264 271 109 77 232 259 306 312 303 305 296 280 294 310 309 305 305 304 306 305 302 300 304 308 307 305 305 302 299 295 291 291 284 260 228 204 190 179 176
193 204 213 219 235 251 220 143 212 240 287 306 302 299 296 294 297 302 304 305 306 305 303 304 300 296 296 299 300 300 298 299 300 296 294 288 287 287 266 217 200 190 179 173
205 205 207 211 230 258 253 246 252 275 288 290 294 299 300 300 300 303 303 304 303 302 302 299 296 295 294 295 292 291 293 298 299 297 298 287 283 277 257 221 197 189 181 172
234 217 237 255 256 262 271 275 276 278 284 295 298 300 302 299 300 302 302 301 301 299 300 300 299 296 294 295 288 285 291 295 293 291 292 286 280 278 263 237 206 193 185 177
238 237 246 256 266 277 268 269 279 283 287 293 296 296 296 297 298 299 300 299 299 299 298 298 297 294 292 294 291 292 295 298 294 288 284 283 275 274 281 273 227 209 207 191
226 233 241 253 255 259 277 291 296 290 283 284 292 298 297 294 296 298 298 299 300 301 300 300 297 295 295 294 291 291 292 290 286 283 279 270 258 262 250 241 335 120 192 182